Miscellaneous Local Product
Issued by NWS North Platte, NE

Home | Current Version | Previous Version | Text Only | Print | Product List | Glossary On
Versions: 1 2 3 4 5 6 7 8 9 10 11 12 13 14 15 16 17 18 19 20 21 22 23 24 25 26 27 28 29 30 31 32 33 34 35 36 37 38 39 40 41 42 43 44 45 46 47 48 49 50
852
AXUS43 KLBF 210310
MISLBF


WESTERN AND NORTH CENTRAL NEBRASKA HOURLY WEATHER ROUNDUP
NATIONAL WEATHER SERVICE NORTH PLATTE NE
900 PM CST MON NOV 20 2017

NOTE: "FAIR" INDICATES FEW OR NO CLOUDS BELOW 12,000 FEET WITH NO
SIGNIFICANT WEATHER AND/OR OBSTRUCTIONS TO VISIBILITY.

NOTE: STATIONS NOT REPORTING VARIABLES SUCH AS SKY/WEATHER OR
PRESSURE ARE PROVIDED BY RAWS AND APRS NETWORKS AND ARE NOT UNDER
NATIONAL WEATHER SERVICE QUALITY CONTROL.

...OBSERVATIONS IN AND NEAR THE EASTERN PANHANDLE OF NEBRASKA...

CITY           SKY/WX    TMP DP  RH WIND       PRES   REMARKS
PINE RIDGE     CLEAR     41  23  48 SE7       29.75R
GORDON         FAIR      38  23  55 W8        29.74S WCI  32
CHADRON        CLOUDY    34  23  64 SW5       29.76R WCI  30
ALLIANCE       CLOUDY    39  20  46 W13       29.78R WCI  31
SIDNEY         CLOUDY    49  20  31 W9        29.82R
CRESCENT LAKE    N/A     49  19  30 W9          N/A
$$

...OBSERVATIONS IN NORTHERN NEBRASKA AND FAR SOUTHERN SOUTH DAKOTA...

CITY           SKY/WX    TMP DP  RH WIND       PRES   REMARKS
WINNER         FAIR      44  23  43 W5        29.71R
VALENTINE      CLOUDY    38  22  52 W8        29.73R WCI  32
THEDFORD       CLOUDY    37  22  55 W5        29.75R WCI  33
AINSWORTH      CLOUDY    38  22  53 NW3       29.73R
O`NEILL        CLOUDY    45  22  40 NW7       29.71R
ORD            CLOUDY    37  24  59 NW7       29.71R WCI  32
BROKEN BOW     CLOUDY    48  21  34 N7        29.73R
VALENTINE NWR    N/A     40  18  41 CALM        N/A
HALSEY           N/A     46  18  32 W5          N/A
BUTTE            N/A     46  23  40 NW8         N/A
CHAMBERS         N/A     43  20  39 W7          N/A
EWING            N/A     42  27  54 CALM        N/A
$$

...OBSERVATIONS IN SOUTHWEST NEBRASKA AND FAR NORTHEAST COLORADO...

CITY           SKY/WX    TMP DP  RH WIND       PRES   REMARKS
HOLYOKE        FAIR      54  19  26 N12       29.79S
IMPERIAL       CLOUDY    53  19  26 N12       29.78S
OGALLALA       CLOUDY    50  21  31 NW10      29.78R
NORTH PLATTE   CLOUDY    42  26  53 NW5       29.76R
MCCOOK         CLOUDY    49  24  37 NW6       29.76R
LEXINGTON      CLOUDY    45  26  46 NW10      29.75R
STAPLETON        N/A     42  23  47 CALM        N/A
GOTHENBURG       N/A     50  20  30 W3          N/A
CALLAWAY         N/A     48  23  37 N7          N/A
$$

...OBSERVATIONS IN CENTRAL LINCOLN COUNTY AREA...

CITY           SKY/WX    TMP DP  RH WIND       PRES   REMARKS
N.P. AIRPORT   CLOUDY    42  26  53 NW5       29.76R
N.P. DOWNTOWN    N/A     45  26  46 CALM        N/A
N.P. SOUTHEAST   N/A     47  25  41 CALM        N/A
N.P. HILLCREST   N/A     46  26  45 W5          N/A
$$

...SOME OBSERVATIONS FROM AROUND THE REGION...

CITY           SKY/WX    TMP DP  RH WIND       PRES   REMARKS
DENVER         CLOUDY    55  11  17 SW10      29.87R
LIMON          CLOUDY    34  14  43 NW6       29.88R WCI  29
ASPEN          CLOUDY    33  22  63 N7        30.15R WCI  27
LARAMIE        CLOUDY    39  13  34 E5        29.98R
CASPER         CLOUDY    40  23  50 SW14      29.85F WCI  32
CHEYENNE       CLOUDY    48  12  23 W23G31    29.88S
SCOTTSBLUFF    CLOUDY    48  17  29 CALM      29.80R
GRAND ISLAND   CLOUDY    41  25  53 W3        29.70R
OMAHA          CLOUDY    45  28  51 SE6       29.66R
SIOUX FALLS    PTCLDY    39  25  57 W7        29.62R WCI  34
PIERRE         CLEAR     44  28  53 NW13      29.69R
RAPID CITY     MOCLDY    44  23  43 N8        29.74R
BISMARCK       MOCLDY    37  18  46 NW24G32   29.71R WCI  26
KANSAS CITY    CLEAR     54  29  38 SW22G30   29.73S
HILL CITY      CLOUDY    52  21  29 SW5       29.75S
WICHITA        CLOUDY    51  31  46 S13       29.82R
DODGE CITY     CLOUDY    50  18  28 SW12      29.78S
OKLAHOMA CITY  CLOUDY    49  29  46 S13       29.87S
DALLAS         PTCLDY    54  33  45 S9        29.93F
AMARILLO       CLOUDY    43  20  39 SE9       29.83S
$$




USA.gov is the U.S. government's official web portal to all federal, state and local government web resources and services.